Location: Burla
(50.9568°N, 10.4983°E)
Time: 08:58:53
(UTC+00:00)

Cosmos 1656 Rocket - Visible Passes

Search period start: 10 April 2026 00:00
Search period end: 20 April 2026 00:00
Orbit: 795 x 842 km, 71.1° (Epoch: 10 April)

Date Brightness Start Highest point End Pass type
(mag) Time Alt. Az. Time Alt. Az. Time Alt. Az.
10 Apr 5.9 18:41:20 10° N 18:43:13 12° NNE 18:45:05 10° NE visible
10 Apr 4.7 20:23:40 10° NNW 20:28:33 33° NE 20:30:27 26° E visible
10 Apr 4.1 22:07:03 10° NW 22:11:46 52° W 22:11:46 52° W visible
11 Apr 4.9 20:01:41 10° NNW 20:06:23 29° NE 20:08:57 20° E visible
11 Apr 3.7 21:44:57 10° NW 21:50:17 65° WSW 21:50:17 65° WSW visible
11 Apr 6.1 23:31:29 10° W 23:31:36 10° W 23:31:36 10° W visible
12 Apr 5.0 19:39:41 10° NNW 19:44:13 26° NE 19:47:30 15° E visible
12 Apr 3.5 21:22:52 10° NNW 21:28:19 76° WSW 21:28:49 69° SSW visible
12 Apr 5.9 23:08:26 10° WNW 23:10:09 13° W 23:10:09 13° W visible
13 Apr 5.1 19:17:43 10° NNW 19:22:02 23° NE 19:26:04 11° E visible
13 Apr 3.5 21:00:49 10° NNW 21:06:17 87° WSW 21:07:23 59° SSE visible
13 Apr 5.7 22:45:49 10° WNW 22:48:43 16° W 22:48:43 16° W visible
14 Apr 5.3 18:55:45 10° NNW 18:59:50 21° NE 19:03:56 10° E visible
14 Apr 3.5 20:38:45 10° NNW 20:44:14 81° ENE 20:45:59 45° SE visible
14 Apr 5.4 22:23:22 10° WNW 22:27:06 19° W 22:27:19 19° WSW visible
15 Apr 3.6 20:16:42 10° NNW 20:22:10 70° ENE 20:24:36 34° SE visible
15 Apr 5.2 22:01:03 10° NW 22:05:10 22° WSW 22:05:56 22° WSW visible
16 Apr 3.8 19:54:40 10° NNW 20:00:05 61° NE 20:03:15 25° SE visible
16 Apr 5.1 21:38:46 10° NW 21:43:14 26° WSW 21:44:36 24° SW visible
17 Apr 4.0 19:32:38 10° NNW 19:37:59 52° NE 19:41:57 18° SE visible
17 Apr 4.9 21:16:33 10° NW 21:21:17 31° WSW 21:23:16 24° SW visible
18 Apr 4.1 19:10:38 10° NNW 19:15:52 46° NE 19:20:40 12° ESE visible
18 Apr 4.7 20:54:21 10° NW 20:59:19 36° WSW 21:02:00 23° SSW visible
19 Apr 4.3 18:48:37 10° NNW 18:53:45 40° NE 18:58:54 10° ESE visible
19 Apr 4.5 20:32:12 10° NW 20:37:20 42° WSW 20:40:47 20° S visible
